Home   Weather   Płock   Past weeks

Flag for Poland Past Weather in Płock, Poland — Yesterday and Last 2 Weeks

Now
60 °F

Refreshingly cool.


Feels Like: 60 °F
Forecast: 39 / 68 °F
Wind: 2 mph from Southeast

Location: Plock

Current Time: Sep 27, 2016 at 5:39:35 PM

Latest Report: Sep 27, 2016 at 5:00 PM


Visibility: 18 mi

Pressure: 30.35 "Hg

Humidity: 45%

Dew Point: 38 °F

Location of PłockLocation

Past Weather in Płock — Graph

°F

Płock Temperature Yesterday

Maximum temperature yesterday: 61 °F (at 4:00 PM)
Minimum temperature yesterday: 43 °F (at 7:00 AM)
Average temperature yesterday: 52 °F

High & Low Weather Summary for the Past Weeks

 TemperatureHumidityPressure
High85 °F (Sep 12, 4:00 PM)98% (Sep 23, 6:00 AM)30.39 "Hg (Sep 23, 6:00 AM)
Low38 °F (Sep 25, 6:00 AM)30% (Sep 15, 3:00 PM)29.92 "Hg (Sep 16, 6:00 PM)
Average57 °F67%30.13 "Hg
* Reported Sep 12 4:00 PM — Sep 27 4:00 PM, Płock, Weather by CustomWeather, © 2016

Note: Actual official high and low records may vary slightly from our data, if they occured in-between our weather recording intervals... More about our weather records

Advertising

Płock Weather History for the Previous 24 Hours

Scroll right to see more
 ConditionsComfort  
Time TempWeatherWind HumidityBarometerVisibility
4:00 PM
Tue, Sep 27
60 °FRefreshingly cool.2 mph45%30.35 "Hg19 mi
3:00 PM60 °FRefreshingly cool.2 mph45%30.36 "Hg15 mi
2:00 PM59 °FRefreshingly cool.3 mph46%30.37 "Hg19 mi
1:00 PM57 °FRefreshingly cool.3 mph49%30.37 "Hg17 mi
12:00 PM56 °FRefreshingly cool.2 mph53%30.38 "Hg18 mi
11:00 AM54 °FCool.2 mph56%30.38 "Hg19 mi
10:00 AM51 °FCool.3 mph62%30.39 "Hg19 mi
9:00 AM48 °FCool.3 mph68%30.38 "Hg17 mi
8:00 AM44 °FQuite cool.2 mph82%30.37 "Hg9 mi
7:00 AM42 °FQuite cool.2 mph85%30.37 "Hg10 mi
6:00 AM41 °FQuite cool.2 mph90%30.36 "Hg8 mi
5:00 AM39 °FChilly.2 mph91%30.35 "Hg6 mi
4:00 AM39 °FChilly.2 mph90%30.34 "Hg7 mi
3:00 AM41 °FQuite cool.2 mph89%30.34 "Hg9 mi
2:00 AM41 °FQuite cool.2 mph87%30.34 "Hg8 mi
1:00 AM43 °FQuite cool.1 mph83%30.34 "Hg9 mi
12:00 AM45 °FQuite cool.2 mph80%30.34 "Hg11 mi
11:00 PM
Mon, Sep 26
45 °FCool.2 mph79%30.34 "Hg10 mi
10:00 PM47 °FCool.2 mph78%30.33 "Hg11 mi
9:00 PM48 °FCool.3 mph73%30.32 "Hg11 mi
8:00 PM49 °FCool.3 mph70%30.32 "Hg11 mi
7:00 PM53 °FCool.3 mph62%30.30 "Hg18 mi
6:00 PM57 °FRefreshingly cool.3 mph52%30.29 "Hg22 mi
5:00 PM60 °FRefreshingly cool.5 mph49%30.27 "Hg19 mi
Weather by CustomWeather, © 2016

See weather overviewHow to use our weather pages